This is the latest recevied weather packets stored in our database for station/object DG5TS-10. If no packets are shown the sender has not sent any weather packets the latest 10 day(s).
| Time | Temp. | Humidity | Pressure | Rain* | Wind** | Luminosity | Snow |
|---|---|---|---|---|---|---|---|
| 1777872332 | 19.44° C | 32% | 1013.4 hPa | - | - | - | - |
| 1777871431 | 19.44° C | 32% | 1013.3 hPa | - | - | - | - |
| 1777870531 | 18.33° C | 34% | 1013.3 hPa | - | - | - | - |
| 1777869631 | 17.78° C | 34% | 1013.1 hPa | - | - | - | - |
| 1777868731 | 17.78° C | 34% | 1013 hPa | - | - | - | - |
| 1777867831 | 17.78° C | 34% | 1012.9 hPa | - | - | - | - |
| 1777866930 | 17.78° C | 34% | 1012.9 hPa | - | - | - | - |
| 1777866030 | 17.78° C | 34% | 1013 hPa | - | - | - | - |
| 1777865130 | 17.78° C | 35% | 1012.9 hPa | - | - | - | - |
| 1777864230 | 17.78° C | 34% | 1013 hPa | - | - | - | - |
| 1777863330 | 17.78° C | 34% | 1012.9 hPa | - | - | - | - |
| 1777862430 | 18.33° C | 33% | 1012.8 hPa | - | - | - | - |
| 1777861530 | 18.33° C | 33% | 1012.8 hPa | - | - | - | - |
| 1777860629 | 18.33° C | 33% | 1012.7 hPa | - | - | - | - |
| 1777859729 | 18.89° C | 32% | 1012.7 hPa | - | - | - | - |
| 1777858829 | 18.89° C | 32% | 1012.7 hPa | - | - | - | - |
| 1777857928 | 19.44° C | 32% | 1012.9 hPa | - | - | - | - |
| 1777857028 | 19.44° C | 32% | 1012.7 hPa | - | - | - | - |
| 1777856128 | 19.44° C | 31% | 1012.5 hPa | - | - | - | - |
| 1777855228 | 19.44° C | 31% | 1012.5 hPa | - | - | - | - |
| 1777854328 | 20° C | 31% | 1012.6 hPa | - | - | - | - |
| 1777853427 | 20° C | 31% | 1012.5 hPa | - | - | - | - |
| 1777852527 | 20° C | 30% | 1012.5 hPa | - | - | - | - |
| 1777851627 | 20° C | 30% | 1012.5 hPa | - | - | - | - |
| 1777850727 | 20.56° C | 30% | 1012.4 hPa | - | - | - | - |
* Rain since midnight (hover to see other rain measurements)
** Current wind speed in m/s (hover to see current wind gust speed)